Location: Kalberh�ni
(46.4610°N, 7.2453°E)
Time: 08:58:10
(UTC+00:00)

Cosmos 1455 - Pass Details

Date: 30 October 2021
Orbit: 496 x 520 km, 82.5° (Epoch: 27 November)

Event Time Altitude Azimuth Distance (km) Brightness Sun altitude
Rises 05:21:17 0° 344° (NNW) 2,597 5.5 -8.9°
Reaches altitude 10° 05:23:28 10° 337° (NNW) 1,707 4.5 -8.5°
Maximum altitude 05:26:59 41° 267° (W) 736 2.5 -7.9°
Drops below altitude 10° 05:30:29 10° 196° (SSW) 1,693 4.8 -7.3°
Sets 05:32:39 0° 189° (S) 2,571 5.8 -7.0°
